Location: 22
(39.7117°N, 89.5929°W)
Time: 18:47:47
(UTC-05:00)

Vanguard 3 - Pass Details

Date: 01 February 2023
Orbit: 508 x 3249 km, 33.4° (Epoch: 30 March)

Event Time Altitude Azimuth Distance (km) Brightness Sun altitude
Rises 03:42:03 0° 275° (W) 7,131 - -39.4°
Reaches altitude 10° 03:51:08 10° 253° (WSW) 6,183 - -37.7°
Maximum altitude 03:58:18 13° 231° (SW) 5,771 - -36.4°
Drops below altitude 10° 04:05:06 10° 209° (SSW) 5,759 - -35.1°
Exits shadow 04:05:46 - 207° (SSW) 5,780 11.2 -34.9°
Sets 04:13:00 0° 185° (S) 6,250 11.6 -33.5°
